weather.gov     
National Weather Service

Regional Weather Roundup
NWS Homepage
This page is being discontinued on March 12, 2014.
The same data is available at this site. Please update your bookmarks.
Thank you, and we apologize for the inconvenience.
Please send an email to SR-SRH.Webmaster@noaa.gov with any concerns.


Current Version
Previous Version:    01  02  03  04  05  06  07  08  09  10  11  12  13  14  15  16  17  18  19  20  21  22  23  24  25  26  27  28  29  30  
   31  32  33  34  35  36  37  38  39  40  41  42  43  44  45  46  47  48  49  50  51  52  53  
[Printable]
600
ASUS43 KFSD 170110
RWRFSD

WEATHER ROUNDUP FOR SE SOUTH DAKOTA/SW MINNESOTA/NW IOWA
NATIONAL WEATHER SERVICE SIOUX FALLS SD
800 PM CDT WED APR 16 2014

NOTE: "FAIR" INDICATES FEW OR NO CLOUDS BELOW 12,000 FEET WITH NO
SIGNIFICANT WEATHER AND OR OBSTRUCTIONS TO VISIBILITY.


SDZ038>040-050-052>070-170200-
SOUTHEAST SOUTH DAKOTA

CITY           SKY/WX    TMP DP  RH WIND       PRES   REMARKS
CHAMBERLAIN      N/A     33  26  75 N13       30.13R WCI  24
HURON          CLOUDY    32  25  75 N16G23    30.11R WCI  21
MITCHELL       CLOUDY    33  26  75 N22G29    30.09R WCI  21
SIOUX FALLS    CLOUDY    30  27  88 N24G30    29.99R WCI  16
WINNER         CLOUDY    33  24  69 N15       30.13R WCI  23
YANKTON        CLOUDY    34  28  80 NW21G31   30.03R WCI  22
$$

MNZ071-072-080-081-089-090-097-098-170200-
SOUTHWEST MINNESOTA

CITY           SKY/WX    TMP DP  RH WIND       PRES   REMARKS
FAIRMONT       CLOUDY    36  34  93 N18       29.82R
JACKSON        SNOW      34  32  93 N12G17    29.85R VSB 1/2 WCI  25
LUVERNE        CLOUDY    32  28  86 N21G28    29.95R WCI  20
MARSHALL       CLOUDY    30  25  80 N24G30    29.98R WCI  16
MONTEVIDEO     CLOUDY    30  27  86 NE20G28   30.04R WCI  18
PIPESTONE      CLOUDY    28  27  93 N18G31    29.95R WCI  16
REDWOOD FALLS  LGT SNOW  30  28  92 N15G25    29.94R FOG     WCI  19
TRACY          CLOUDY    30  28  94 N18G25    29.95R FOG     WCI  18
WINDOM         LGT SNOW  30  30 100 N23G29    29.87R WCI  17
WORTHINGTON    CLOUDY    30  23  74 N25G31    29.91R WCI  16
$$

IAZ001>003-012>014-020>022-031-032-NEZ013-014-SDZ071-170200-
NORTHWEST IOWA

CITY           SKY/WX    TMP DP  RH WIND       PRES   REMARKS
CHEROKEE       CLOUDY    38  37  93 NW16G26   29.87R
DENISON        CLOUDY    41  37  87 NW17G31   29.84R
ESTHERVILLE    RAIN      36  36 100 N16       29.81R FOG
LE MARS        CLOUDY    34  30  86 N18G28    29.94R WCI  23
ORANGE CITY    CLOUDY    32  27  80 N21G31    29.91R WCI  20
SHELDON        CLOUDY    32  30  93 N26G36    29.89R WCI  18
SIOUX CITY     CLOUDY    36  31  82 NW28G38   29.92R
SPENCER        LGT RAIN  37  34  89 N21       29.83R
STORM LAKE     LGT RAIN  39  39 100 N22G28    29.83R
$$

ABBREVIATIONS USED IN REMARKS
   TC - TEMPERATURE IN CELSIUS
  WCI - WIND CHILL INDEX
   HX - HEAT INDEX
  VSB - VISIBILITY





U.S. Dept. of Commerce
NOAA National Weather Service
1325 East West Highway
Silver Spring, MD 20910
E-mail: w-nws.webmaster@noaa.gov
Page last modified: May 16, 2007
NATIONAL WEATHER SERVICE: for Safety, for Work, for Fun - FOR LIFE